Вернуться в каталог

FREGAT DEB

TANK

АктивенUNKNOWN
NORAD 43089·DEBRIS·🇷🇺 Russia

Запущен Dec 26, 2017 с Baikonur Cosmodrome

Loading…

Ближайшие Пролёты (ближайшие 24 часа)

TLE

СвежийSource: Space-Track

Эпоха: Sep 14, 2026, 10:28 UTC

1 43089U 17086C   26257.43654348  .00030350  63399-5  54141-3 0  9999
2 43089  50.3543 327.3461 1245007 135.7975 234.9457 13.13233281372292

Отслеживайте FREGAT DEB в реальном времени с AllMySat

Download on the App Store